Location: Calgary
(51.0833°N, 114.0833°W)
Time: 22:11:03
(UTC-07:00)

N. Korean satellite - Visible Passes

Search period start: 16 January 2018 00:00
Search period end: 26 January 2018 00:00
Orbit: 459 x 515 km, 97.2° (Epoch: 16 January)

Date Brightness Start Highest point End Pass type
(mag) Time Alt. Az. Time Alt. Az. Time Alt. Az.
16 Jan 9.8 06:23:35 10° NE 06:25:32 14° E 06:27:29 10° SE visible
16 Jan 7.1 18:36:40 10° S 18:40:15 60° WSW 18:43:49 10° NNW visible
17 Jan 6.5 07:32:15 10° NNE 07:35:43 88° ESE 07:39:09 10° SSW visible
17 Jan 6.4 18:12:59 10° SSE 18:16:35 72° ENE 18:20:09 10° N visible
17 Jan 10.2 19:49:37 10° WSW 19:50:33 11° W 19:51:29 10° WNW visible
18 Jan 7.7 07:08:40 10° NNE 07:12:01 45° E 07:15:19 10° S visible
18 Jan 7.0 17:49:37 10° SE 17:52:59 39° ENE 17:56:19 10° N visible
18 Jan 9.5 19:24:03 10° SW 19:26:40 19° W 19:29:16 10° NW visible
19 Jan 9.0 06:45:20 10° NE 06:48:14 24° E 06:51:06 10° SSE visible
19 Jan 8.5 18:59:34 10° SSW 19:02:51 32° W 19:06:06 10° NNW visible
20 Jan 9.9 06:22:28 10° ENE 06:24:22 14° E 06:26:15 10° ESE visible
20 Jan 7.1 18:35:34 10° S 18:39:06 61° W 18:42:38 10° NNW visible
21 Jan 6.5 07:31:05 10° NNE 07:34:33 86° ESE 07:38:00 10° SSW visible
21 Jan 6.4 18:11:52 10° SSE 18:15:26 71° ENE 18:18:57 10° N visible
21 Jan 10.2 19:48:26 10° WSW 19:49:23 11° W 19:50:19 10° WNW visible
22 Jan 7.8 07:07:30 10° NNE 07:10:50 43° E 07:14:08 10° S visible
22 Jan 7.0 17:48:31 10° SE 17:51:50 37° ENE 17:55:06 10° N visible
22 Jan 9.5 19:22:53 10° SW 19:25:29 19° W 19:28:04 10° NW visible
23 Jan 9.1 06:44:10 10° NE 06:47:02 24° E 06:49:53 10° SSE visible
23 Jan 8.4 18:58:25 10° SSW 19:01:40 33° W 19:04:53 10° NNW visible
24 Jan 9.9 06:21:19 10° ENE 06:23:10 14° E 06:25:01 10° ESE visible
24 Jan 7.0 18:34:24 10° S 18:37:54 62° WSW 18:41:24 10° NNW visible
25 Jan 6.5 07:29:51 10° NNE 07:33:20 84° ESE 07:36:48 10° SSW visible
25 Jan 6.4 18:10:43 10° SSE 18:14:14 69° ENE 18:17:43 10° N visible
25 Jan 10.2 19:47:13 10° WSW 19:48:10 11° W 19:49:08 10° WNW visible
